星链-3976 (STARLINK-3976 )

导读

STARLINK-3976是美国SpaceX星链星座中的一颗卫星,于2022年5月18日发射升空,属于星链星座组网阶段的批量发射卫星,运行于近地轨道。星链项目旨在构建全球卫星互联网,为偏远地区、航空航海等场景提供宽带服务,STARLINK-3976的入轨进一步扩充了星链星座的覆盖能力与通信容量。

基本信息
目录编号:
52673
目录名称:
STARLINK-3976
国际标识:
2022-053T
轨道中心:
EARTH
卫星名称:
星链-3976
卫星全名:
星链-3976 (STARLINK-3976 )
卫星状态:
在轨 (已飞行1570 天)
发射日期:
2022-05-18 UTC
国别 :
美国 (US)
星等 :
--
轨道信息
数据来源 国际轨道数据
星历时间: 2026-09-03T05:57:45+0800
1天前
查看轨道信息
半长轴: 6837.872km
偏心率: 0.000144
轨道倾角: 53.161°
近地点辐角 87.947°
升交点赤经 70.483°
平近点角 272.170°
近地点: 458.75km
远地点: 460.72km
周期: 93.787分钟
每日圈数: 15.353995
详细信息
固有亮度:
5
最大亮度:
2.5
卫星平台:
Starlink v1.5
覆盖范围:
全球
运营商:
太空探索技术公司
运营商所在国:
美国
制造商(研发单位):
太空探索技术公司
制造商所在国:
美国
使用方式:
暂无
卫星简介
星链(Starlink)计划是由太空探索技术公司(SpaceX)提出的一个巨型低轨卫星互联网星座项目,计划在2019年至2024年间在太空搭建由约1.2万颗卫星组成的“星链”网络,其中1584颗将部署在地球上空550千米处的近地轨道,并从2020年开始工作。该卫星仍在工作。
2D轨道图
3D轨道图
轨道高度分析图
轨道倾角分析图
轨道综合分析图
查看轨道综合分析图
交会数据列表
事件ID 空间交会对象 最接近时刻(TCA) 交会距离 交会风险概率(CRP) 交会风险指数(CRI) 操作
CDM_260905-140905-267306-611921
2026-09-05T
14:09:36+0000
2.594 km
极远距离
1.410014E-6 低风险 0.38
CDM_260905-133205-267306-448721
2026-09-05T
13:32:31+0000
2.144 km
极远距离
1.387158E-6 低风险 0.38
CDM_260905-064305-267306-817021
2026-09-05T
06:43:31+0000
2.873 km
极远距离
1.036781E-6 低风险 0.35